Location: Unspecified
(48.7670°N, 0.0000°E)
Time: 16:58:14
(UTC+00:00)

Altair - Pass Details

Date: 22 June 2019
Orbit: 1501 x 1683 km, 47.2° (Epoch: 20 July)

Event Time Altitude Azimuth Distance (km) Brightness Sun altitude
Rises 20:28:59 0° 239° (WSW) 4,707 10.3 -3.6°
Reaches altitude 10° 20:32:00 10° 237° (WSW) 3,748 9.7 -4.0°
Maximum altitude 20:41:25 66° 157° (SSE) 1,726 7.6 -5.1°
Drops below altitude 10° 20:51:13 10° 79° (ENE) 3,897 9.3 -6.2°
Sets 20:54:25 0° 77° (ENE) 4,903 9.9 -6.5°
